DOP weather

Dolpa Airport
Dolpa, Karnali, Nepal

Public forecast

Using degrees Celsius for public forecast. Weather courtesy of forecast.io.

METAR (pilot weather report)

Closest report is Tribhuvan International Airport, 154.9 nm (286.9 km) ESE. Retrieved 2019/07/17 11:50 UTC (2 hours ago):

VNKT 171150Z 28009KT 240V310 8000 FEW015 FEW025CB SCT030 27/21 Q1008 NOSIG CB TO S AND W

TAF (pilot weather forecast)

Forecast is more than 12 hours old.

Closest forecast is Tribhuvan International Airport, 154.9 nm (286.9 km) ESE. Retrieved 2019/07/13 06:24 UTC (4 days ago):

TAF TAF VNKT 130500Z 1306/1406 08008KT 6000 FEW010 SCT030 BKN100 PROB40 1306/1312 12012KT 5000 RA FEW025CB BECMG 1314/1315 11005KT 6000 FEW010 SCT030 BKN100 PROB40 1315/1321 10012G24KT 3000 RA FEW025CB OVC090 BECMG 1400/1402 VRB02KT 5000 -RA FEW008 SCT025 BKN100 BECMG 1404/1405 12004KT 6000 FEW015 SCT030 BKN100